Time,TemperatureF,DewpointF,PressureIn,WindDirection,WindDirectionDegrees,WindSpeedMPH,WindSpeedGustMPH,Humidity,HourlyPrecipIn,Conditions,Clouds,dailyrainin,SoftwareType,DateUTC
2013-05-26 00:13:00,57.2,33.7,29.66,NE,45,3.2,-999.0,41,-99.99,,,0.00,Acu-Link.com,2013-05-26 08:13:00,
2013-05-26 00:29:00,56.8,35.1,29.66,SE,135,0.0,-999.0,44,-99.99,,,0.00,Acu-Link.com,2013-05-26 08:29:00,
2013-05-26 00:44:00,54.1,34.3,29.66,ESE,112,2.7,-999.0,47,-99.99,,,0.00,Acu-Link.com,2013-05-26 08:44:00,
2013-05-26 00:59:00,51.8,35.2,29.66,ESE,112,1.7,-999.0,53,-99.99,,,0.00,Acu-Link.com,2013-05-26 08:59:00,
2013-05-26 01:14:00,50.0,34.9,29.66,SE,135,2.7,-999.0,56,-99.99,,,0.00,Acu-Link.com,2013-05-26 09:14:00,
2013-05-26 01:30:00,48.2,35.4,29.67,SE,135,2.2,-999.0,61,-99.99,,,0.00,Acu-Link.com,2013-05-26 09:30:00,
2013-05-26 01:45:00,46.4,34.5,29.68,ESE,112,1.7,-999.0,63,-99.99,,,0.00,Acu-Link.com,2013-05-26 09:45:00,
2013-05-26 02:00:00,44.6,34.7,29.67,South,180,0.0,-999.0,68,-99.99,,,0.00,Acu-Link.com,2013-05-26 10:00:00,
2013-05-26 02:15:00,43.2,33.7,29.68,ENE,67,1.7,-999.0,69,-99.99,,,0.00,Acu-Link.com,2013-05-26 10:15:00,
2013-05-26 02:30:00,44.1,34.2,29.67,ESE,112,3.2,-999.0,68,-99.99,,,0.00,Acu-Link.com,2013-05-26 10:30:00,
2013-05-26 02:46:00,43.2,33.7,29.68,SSE,157,2.7,-999.0,69,-99.99,,,0.00,Acu-Link.com,2013-05-26 10:46:00,
2013-05-26 03:01:00,42.6,32.8,29.68,SSE,157,0.0,-999.0,68,-99.99,,,0.00,Acu-Link.com,2013-05-26 11:01:00,
2013-05-26 03:16:00,41.2,33.6,29.69,NNW,337,2.7,-999.0,74,-99.99,,,0.00,Acu-Link.com,2013-05-26 11:16:00,
2013-05-26 03:31:00,40.5,31.8,29.69,NNW,337,0.0,-999.0,71,-99.99,,,0.00,Acu-Link.com,2013-05-26 11:31:00,
2013-05-26 03:46:00,40.3,34.3,29.69,NE,45,1.7,-999.0,79,-99.99,,,0.00,Acu-Link.com,2013-05-26 11:46:00,
2013-05-26 04:02:00,38.5,32.6,29.70,WSW,247,0.0,-999.0,79,-99.99,,,0.00,Acu-Link.com,2013-05-26 12:02:00,
2013-05-26 04:17:00,38.5,33.2,29.70,NE,45,0.0,-999.0,81,-99.99,,,0.00,Acu-Link.com,2013-05-26 12:17:00,
2013-05-26 04:32:00,38.3,35.1,29.70,NNE,22,0.0,-999.0,88,-99.99,,,0.00,Acu-Link.com,2013-05-26 12:32:00,
2013-05-26 04:48:00,39.0,33.1,29.70,NNE,22,2.2,-999.0,79,-99.99,,,0.00,Acu-Link.com,2013-05-26 12:48:00,
2013-05-26 05:03:00,39.2,33.6,29.70,NW,315,0.0,-999.0,80,-99.99,,,0.00,Acu-Link.com,2013-05-26 13:03:00,
2013-05-26 05:18:00,40.1,35.1,29.70,NNE,22,0.0,-999.0,82,-99.99,,,0.00,Acu-Link.com,2013-05-26 13:18:00,
2013-05-26 05:33:00,41.5,34.8,29.70,NNE,22,0.0,-999.0,77,-99.99,,,0.00,Acu-Link.com,2013-05-26 13:33:00,
2013-05-26 05:48:00,43.2,35.8,29.70,West,270,0.0,-999.0,75,-99.99,,,0.00,Acu-Link.com,2013-05-26 13:48:00,
2013-05-26 06:04:00,43.3,34.5,29.71,WSW,247,1.7,-999.0,71,-99.99,,,0.00,Acu-Link.com,2013-05-26 14:04:00,
2013-05-26 06:19:00,45.0,35.8,29.71,South,180,0.0,-999.0,70,-99.99,,,0.00,Acu-Link.com,2013-05-26 14:19:00,
2013-05-26 06:34:00,47.3,36.1,29.71,West,270,2.2,-999.0,65,-99.99,,,0.00,Acu-Link.com,2013-05-26 14:34:00,
2013-05-26 06:49:00,48.2,35.4,29.70,NW,315,4.7,-999.0,61,-99.99,,,0.00,Acu-Link.com,2013-05-26 14:49:00,
2013-05-26 07:04:00,50.5,37.1,29.70,NNW,337,0.0,-999.0,60,-99.99,,,0.00,Acu-Link.com,2013-05-26 15:04:00,
2013-05-26 07:20:00,52.3,37.1,29.71,WNW,292,2.2,-999.0,56,-99.99,,,0.00,Acu-Link.com,2013-05-26 15:20:00,
2013-05-26 07:35:00,56.8,38.9,29.71,East,90,1.7,-999.0,51,-99.99,,,0.00,Acu-Link.com,2013-05-26 15:35:00,
2013-05-26 07:50:00,58.3,39.2,29.71,ESE,112,1.7,-999.0,49,-99.99,,,0.00,Acu-Link.com,2013-05-26 15:50:00,
2013-05-26 08:05:00,64.2,39.4,29.70,ENE,67,1.7,-999.0,40,-99.99,,,0.00,Acu-Link.com,2013-05-26 16:05:00,
2013-05-26 08:20:00,66.4,40.0,29.69,East,90,1.7,-999.0,38,-99.99,,,0.00,Acu-Link.com,2013-05-26 16:20:00,
2013-05-26 08:36:00,67.8,36.1,29.69,SSE,157,2.7,-999.0,31,-99.99,,,0.00,Acu-Link.com,2013-05-26 16:36:00,
2013-05-26 08:51:00,62.2,38.2,29.69,NE,45,1.7,-999.0,41,-99.99,,,0.00,Acu-Link.com,2013-05-26 16:51:00,
2013-05-26 09:06:00,63.9,38.5,29.68,SE,135,2.7,-999.0,39,-99.99,,,0.00,Acu-Link.com,2013-05-26 17:06:00,
2013-05-26 09:22:00,61.5,36.3,29.67,WSW,247,2.2,-999.0,39,-99.99,,,0.00,Acu-Link.com,2013-05-26 17:22:00,
2013-05-26 09:37:00,65.8,38.8,29.65,East,90,1.1,-999.0,37,-99.99,,,0.00,Acu-Link.com,2013-05-26 17:37:00,
2013-05-26 09:52:00,66.2,39.8,29.62,West,270,2.2,-999.0,38,-99.99,,,0.00,Acu-Link.com,2013-05-26 17:52:00,
2013-05-26 10:08:00,64.8,37.9,29.61,NNW,337,3.7,-999.0,37,-99.99,,,0.00,Acu-Link.com,2013-05-26 18:08:00,
2013-05-26 10:23:00,67.3,37.2,29.61,NE,45,3.7,-999.0,33,-99.99,,,0.00,Acu-Link.com,2013-05-26 18:23:00,
2013-05-26 10:38:00,65.1,35.3,29.61,East,90,2.7,-999.0,33,-99.99,,,0.00,Acu-Link.com,2013-05-26 18:38:00,
2013-05-26 10:53:00,68.5,36.7,29.61,West,270,3.7,-999.0,31,-99.99,,,0.00,Acu-Link.com,2013-05-26 18:53:00,
2013-05-26 11:09:00,68.4,34.9,29.60,West,270,5.8,-999.0,29,-99.99,,,0.00,Acu-Link.com,2013-05-26 19:09:00,
2013-05-26 11:24:00,70.2,34.6,29.61,West,270,1.7,-999.0,27,-99.99,,,0.00,Acu-Link.com,2013-05-26 19:24:00,
2013-05-26 11:39:00,69.8,32.4,29.60,ESE,112,0.0,-999.0,25,-99.99,,,0.00,Acu-Link.com,2013-05-26 19:39:00,
2013-05-26 11:54:00,70.5,34.0,29.59,South,180,2.7,-999.0,26,-99.99,,,0.00,Acu-Link.com,2013-05-26 19:54:00,
2013-05-26 12:10:00,72.1,34.3,29.60,NNW,337,3.7,-999.0,25,-99.99,,,0.00,Acu-Link.com,2013-05-26 20:10:00,
2013-05-26 12:25:00,71.6,32.9,29.61,WSW,247,2.7,-999.0,24,-99.99,,,0.00,Acu-Link.com,2013-05-26 20:25:00,
2013-05-26 12:40:00,72.5,33.6,29.60,West,270,1.1,-999.0,24,-99.99,,,0.00,Acu-Link.com,2013-05-26 20:40:00,
2013-05-26 12:55:00,74.7,35.5,29.62,West,270,4.2,-999.0,24,-99.99,,,0.00,Acu-Link.com,2013-05-26 20:55:00,
2013-05-26 13:10:00,75.9,36.5,29.63,NE,45,7.3,-999.0,24,-99.99,,,0.00,Acu-Link.com,2013-05-26 21:10:00,
2013-05-26 13:26:00,74.8,36.6,29.62,SSE,157,4.7,-999.0,25,-99.99,,,0.00,Acu-Link.com,2013-05-26 21:26:00,
2013-05-26 13:41:00,73.9,33.8,29.61,SSE,157,4.2,-999.0,23,-99.99,,,0.00,Acu-Link.com,2013-05-26 21:41:00,
2013-05-26 13:56:00,74.3,34.1,29.61,WSW,247,2.2,-999.0,23,-99.99,,,0.00,Acu-Link.com,2013-05-26 21:56:00,
2013-05-26 14:11:00,75.9,33.2,29.61,WSW,247,7.8,-999.0,21,-99.99,,,0.00,Acu-Link.com,2013-05-26 22:11:00,
2013-05-26 14:27:00,75.9,35.4,29.61,South,180,3.2,-999.0,23,-99.99,,,0.00,Acu-Link.com,2013-05-26 22:27:00,
2013-05-26 14:42:00,76.1,34.5,29.60,SSW,202,5.8,-999.0,22,-99.99,,,0.00,Acu-Link.com,2013-05-26 22:42:00,
2013-05-26 14:57:00,73.4,34.4,29.61,ENE,67,1.7,-999.0,24,-99.99,,,0.00,Acu-Link.com,2013-05-26 22:57:00,
2013-05-26 15:12:00,76.3,33.5,29.60,WSW,247,7.3,-999.0,21,-99.99,,,0.00,Acu-Link.com,2013-05-26 23:12:00,
2013-05-26 15:28:00,76.6,33.7,29.59,SW,225,9.4,-999.0,21,-99.99,,,0.00,Acu-Link.com,2013-05-26 23:28:00,
2013-05-26 15:43:00,76.5,33.7,29.59,WSW,247,6.3,-999.0,21,-99.99,,,0.00,Acu-Link.com,2013-05-26 23:43:00,
2013-05-26 15:58:00,76.6,32.5,29.59,West,270,6.8,-999.0,20,-99.99,,,0.00,Acu-Link.com,2013-05-26 23:58:00,
2013-05-26 16:13:00,77.0,32.8,29.58,West,270,5.8,-999.0,20,-99.99,,,0.00,Acu-Link.com,2013-05-27 00:13:00,
2013-05-26 16:28:00,77.0,32.8,29.58,West,270,4.7,-999.0,20,-99.99,,,0.00,Acu-Link.com,2013-05-27 00:28:00,
2013-05-26 16:44:00,78.4,34.0,29.58,SSE,157,1.7,-999.0,20,-99.99,,,0.00,Acu-Link.com,2013-05-27 00:44:00,
2013-05-26 16:59:00,77.5,32.0,29.58,SW,225,5.3,-999.0,19,-99.99,,,0.00,Acu-Link.com,2013-05-27 00:59:00,
2013-05-26 17:14:00,77.2,31.7,29.57,West,270,3.2,-999.0,19,-99.99,,,0.00,Acu-Link.com,2013-05-27 01:14:00,
2013-05-26 17:30:00,78.6,32.9,29.57,NE,45,6.3,-999.0,19,-99.99,,,0.00,Acu-Link.com,2013-05-27 01:30:00,
2013-05-26 17:45:00,79.0,33.2,29.57,WSW,247,6.8,-999.0,19,-99.99,,,0.00,Acu-Link.com,2013-05-27 01:45:00,
2013-05-26 18:00:00,78.4,32.7,29.56,NW,315,2.7,-999.0,19,-99.99,,,0.00,Acu-Link.com,2013-05-27 02:00:00,
2013-05-26 18:15:00,77.5,32.0,29.56,West,270,7.8,-999.0,19,-99.99,,,0.00,Acu-Link.com,2013-05-27 02:15:00,
2013-05-26 18:30:00,77.7,32.1,29.56,NE,45,3.7,-999.0,19,-99.99,,,0.00,Acu-Link.com,2013-05-27 02:30:00,
2013-05-26 18:46:00,80.6,31.7,29.56,NNE,22,3.7,-999.0,17,-99.99,,,0.00,Acu-Link.com,2013-05-27 02:46:00,
2013-05-26 19:01:00,77.7,33.4,29.56,East,90,7.8,-999.0,20,-99.99,,,0.00,Acu-Link.com,2013-05-27 03:01:00,
2013-05-26 19:16:00,74.1,39.8,29.57,ESE,112,8.3,-999.0,29,-99.99,,,0.00,Acu-Link.com,2013-05-27 03:16:00,
2013-05-26 19:32:00,71.1,39.7,29.59,SSE,157,3.7,-999.0,32,-99.99,,,0.00,Acu-Link.com,2013-05-27 03:32:00,
2013-05-26 19:47:00,73.8,39.5,29.56,NNE,22,9.9,-999.0,29,-99.99,,,0.00,Acu-Link.com,2013-05-27 03:47:00,
2013-05-26 20:02:00,75.2,37.0,29.58,ESE,112,15.5,-999.0,25,-99.99,,,0.00,Acu-Link.com,2013-05-27 04:02:00,
2013-05-26 20:17:00,74.3,36.2,29.58,NE,45,9.9,-999.0,25,-99.99,,,0.00,Acu-Link.com,2013-05-27 04:17:00,
2013-05-26 20:32:00,74.5,36.4,29.58,East,90,4.2,-999.0,25,-99.99,,,0.00,Acu-Link.com,2013-05-27 04:32:00,
2013-05-26 20:48:00,75.6,36.3,29.57,East,90,4.2,-999.0,24,-99.99,,,0.00,Acu-Link.com,2013-05-27 04:48:00,
2013-05-26 21:05:00,76.1,33.3,29.58,NNE,22,3.7,-999.0,21,-99.99,,,0.00,Acu-Link.com,2013-05-27 05:05:00,
2013-05-26 21:20:00,74.8,34.5,29.57,ESE,112,4.7,-999.0,23,-99.99,,,0.00,Acu-Link.com,2013-05-27 05:20:00,
2013-05-26 21:35:00,73.9,37.8,29.57,ENE,67,4.7,-999.0,27,-99.99,,,0.00,Acu-Link.com,2013-05-27 05:35:00,
2013-05-26 21:51:00,72.9,37.9,29.58,ESE,112,3.7,-999.0,28,-99.99,,,0.00,Acu-Link.com,2013-05-27 05:51:00,
2013-05-26 22:06:00,71.2,39.0,29.58,ESE,112,2.7,-999.0,31,-99.99,,,0.00,Acu-Link.com,2013-05-27 06:06:00,
2013-05-26 22:21:00,69.6,40.7,29.58,ESE,112,2.7,-999.0,35,-99.99,,,0.00,Acu-Link.com,2013-05-27 06:21:00,
2013-05-26 22:36:00,66.7,40.3,29.58,ESE,112,1.7,-999.0,38,-99.99,,,0.00,Acu-Link.com,2013-05-27 06:36:00,
2013-05-26 22:52:00,64.2,40.6,29.59,ESE,112,0.0,-999.0,42,-99.99,,,0.00,Acu-Link.com,2013-05-27 06:52:00,
2013-05-26 23:07:00,63.5,42.9,29.60,ESE,112,2.7,-999.0,47,-99.99,,,0.00,Acu-Link.com,2013-05-27 07:07:00,
2013-05-26 23:22:00,62.6,46.7,29.60,ESE,112,2.7,-999.0,56,-99.99,,,0.00,Acu-Link.com,2013-05-27 07:22:00,
2013-05-26 23:37:00,62.6,44.2,29.60,ESE,112,2.2,-999.0,51,-99.99,,,0.00,Acu-Link.com,2013-05-27 07:37:00,
2013-05-26 23:53:00,60.8,44.0,29.60,ESE,112,1.7,-999.0,54,-99.99,,,0.00,Acu-Link.com,2013-05-27 07:53:00,